,,Stat6,,Stat2,,Stat8,,Stat9,,Stat10,,Wind1,,Wind1,
time,status,PA1M_AVG,status,PR1M_SUM,status,RH1M_AVG,status,SR1M_AVG,status,TA1M_AVG,status,W1dAve1m,status,W1sAve1m,
2006-11-21, 07:00:02,VALID,917.305,VALID,0,VALID,95.3665,VALID,0.0679233,VALID,20.1278,VALID,43,VALID,0.0941051,
2006-11-21, 07:01:00,VALID,917.304,VALID,0,VALID,95.2648,VALID,0.0339617,VALID,20.1216,VALID,43,VALID,0.0740412,
2006-11-21, 07:02:00,VALID,917.295,VALID,0,VALID,95.0728,VALID,0.0339617,VALID,20.1022,VALID,28,VALID,0.519903,
2006-11-21, 07:03:00,VALID,917.28,VALID,0,VALID,95.2559,VALID,0.0509425,VALID,20.0374,VALID,30,VALID,1.18502,
2006-11-21, 07:04:00,VALID,917.264,VALID,0,VALID,95.7709,VALID,0,VALID,20.0183,VALID,29,VALID,1.13205,
2006-11-21, 07:05:00,VALID,917.236,VALID,0,VALID,95.804,VALID,0.0339617,VALID,20.0084,VALID,40,VALID,1.22656,
2006-11-21, 07:06:00,VALID,917.216,VALID,0,VALID,95.79,VALID,0.0679233,VALID,20.0344,VALID,52,VALID,1.11555,
2006-11-21, 07:07:00,VALID,917.188,VALID,0,VALID,95.6259,VALID,0.0169808,VALID,20.0829,VALID,49,VALID,1.05417,
2006-11-21, 07:08:00,VALID,917.182,VALID,0,VALID,95.3792,VALID,0,VALID,20.1608,VALID,47,VALID,0.68859,
2006-11-21, 07:09:00,VALID,917.195,VALID,0,VALID,95.0207,VALID,0,VALID,20.2291,VALID,35,VALID,1.07776,
2006-11-21, 07:10:00,VALID,917.194,VALID,0,VALID,94.4815,VALID,0,VALID,20.2808,VALID,35,VALID,0.879616,
2006-11-21, 07:11:00,VALID,917.173,VALID,0,VALID,94.2907,VALID,0,VALID,20.3098,VALID,35,VALID,0.722266,
2006-11-21, 07:12:00,VALID,917.167,VALID,0,VALID,94.2818,VALID,0,VALID,20.3093,VALID,36,VALID,0.422247,
2006-11-21, 07:13:00,VALID,917.136,VALID,0,VALID,94.3442,VALID,-0.0169808,VALID,20.3262,VALID,37,VALID,0.463663,
2006-11-21, 07:14:00,VALID,917.119,VALID,0,VALID,94.3759,VALID,0,VALID,20.3521,VALID,43,VALID,0.477493,
2006-11-21, 07:15:00,VALID,917.084,VALID,0,VALID,94.2577,VALID,0,VALID,20.3712,VALID,52,VALID,0.342578,
2006-11-21, 07:16:00,VALID,917.078,VALID,0,VALID,94.1051,VALID,0,VALID,20.4035,VALID,52,VALID,0.625,
2006-11-21, 07:17:00,VALID,917.074,VALID,0,VALID,93.866,VALID,0.0169808,VALID,20.4067,VALID,52,VALID,0.698401,
2006-11-21, 07:18:00,VALID,917.07,VALID,0,VALID,93.7923,VALID,0,VALID,20.397,VALID,46,VALID,0.809961,
2006-11-21, 07:19:00,VALID,917.075,VALID,0,VALID,93.8419,VALID,-0.0169808,VALID,20.3779,VALID,41,VALID,0.579102,
2006-11-21, 07:20:00,VALID,917.07,VALID,0,VALID,93.8699,VALID,0,VALID,20.3424,VALID,59,VALID,0.767078,
2006-11-21, 07:21:00,VALID,917.054,VALID,0,VALID,94.0784,VALID,0.0169808,VALID,20.3233,VALID,58,VALID,0.577592,
2006-11-21, 07:22:00,VALID,917.051,VALID,0,VALID,94.1776,VALID,0.0169808,VALID,20.3195,VALID,66,VALID,0.309152,
2006-11-21, 07:23:00,VALID,917.045,VALID,0,VALID,94.2691,VALID,0.0169808,VALID,20.3222,VALID,63,VALID,0.454078,
2006-11-21, 07:24:00,VALID,917.044,VALID,0,VALID,94.2386,VALID,0,VALID,20.3483,VALID,61,VALID,0.430489,
2006-11-21, 07:25:00,VALID,917.043,VALID,0,VALID,94.1725,VALID,0,VALID,20.3647,VALID,61,VALID,0.450195,
2006-11-21, 07:26:00,VALID,917.045,VALID,0,VALID,93.9131,VALID,0,VALID,20.3774,VALID,60,VALID,0.321289,
2006-11-21, 07:27:00,VALID,917.044,VALID,0,VALID,93.5456,VALID,0,VALID,20.359,VALID,25,VALID,0.71189,
2006-11-21, 07:28:00,VALID,917.019,VALID,0,VALID,93.9309,VALID,0,VALID,20.316,VALID,23,VALID,0.680246,
2006-11-21, 07:29:00,VALID,917.007,VALID,0,VALID,94.1928,VALID,0.0169808,VALID,20.3098,VALID,23,VALID,0.328125,
2006-11-21, 07:30:00,VALID,916.987,VALID,0,VALID,94.4103,VALID,0,VALID,20.3002,VALID,23,VALID,0.364826,
2006-11-21, 07:31:00,VALID,916.953,VALID,0,VALID,94.498,VALID,0.0339617,VALID,20.2934,VALID,23,VALID,0.395241,
2006-11-21, 07:32:00,VALID,916.938,VALID,0,VALID,94.5527,VALID,0.0169808,VALID,20.2967,VALID,23,VALID,0.390803,
2006-11-21, 07:33:00,VALID,916.92,VALID,0,VALID,94.5463,VALID,0,VALID,20.2974,VALID,23,VALID,0.446837,
2006-11-21, 07:34:00,VALID,916.907,VALID,0,VALID,94.4535,VALID,0,VALID,20.2776,VALID,24,VALID,0.460379,
2006-11-21, 07:35:00,VALID,916.895,VALID,0,VALID,94.4904,VALID,0.0169808,VALID,20.2353,VALID,24,VALID,0.573289,
2006-11-21, 07:36:00,VALID,916.883,VALID,0,VALID,94.8172,VALID,0,VALID,20.1899,VALID,29,VALID,0.602412,
2006-11-21, 07:37:00,VALID,916.856,VALID,0,VALID,95.0168,VALID,0,VALID,20.1745,VALID,41,VALID,0.484375,
2006-11-21, 07:38:00,VALID,916.829,VALID,0,VALID,95.2305,VALID,0,VALID,20.1584,VALID,46,VALID,0.310785,
2006-11-21, 07:39:00,VALID,916.804,VALID,0,VALID,95.1135,VALID,-0.0169808,VALID,20.1546,VALID,49,VALID,0.655692,
2006-11-21, 07:40:00,VALID,916.788,VALID,0,VALID,95.0079,VALID,0,VALID,20.1261,VALID,43,VALID,0.628239,
2006-11-21, 07:41:00,VALID,916.768,VALID,0,VALID,95.1287,VALID,0,VALID,20.0739,VALID,39,VALID,0.473611,
2006-11-21, 07:42:00,VALID,916.747,VALID,0,VALID,95.392,VALID,0.0169808,VALID,20.032,VALID,32,VALID,0.233073,
2006-11-21, 07:43:00,VALID,916.762,VALID,0,VALID,95.3207,VALID,0,VALID,19.9908,VALID,32,VALID,0.193788,
2006-11-21, 07:44:00,VALID,916.762,VALID,0,VALID,94.9266,VALID,0.0339617,VALID,19.8641,VALID,32,VALID,0.0571057,
2006-11-21, 07:45:00,VALID,916.768,VALID,0,VALID,95.2521,VALID,0,VALID,19.7713,VALID,25,VALID,0.39606,
2006-11-21, 07:46:00,VALID,916.749,VALID,0,VALID,95.6374,VALID,0,VALID,19.6806,VALID,17,VALID,0.370617,
2006-11-21, 07:47:00,VALID,916.744,VALID,0,VALID,96.1651,VALID,0,VALID,19.6352,VALID,16,VALID,0.229106,
2006-11-21, 07:48:00,VALID,916.743,VALID,0,VALID,96.4487,VALID,0,VALID,19.593,VALID,16,VALID,0.142442,
2006-11-21, 07:49:00,VALID,916.75,VALID,0,VALID,96.4309,VALID,0.0169808,VALID,19.5478,VALID,16,VALID,0.218555,
2006-11-21, 07:50:00,VALID,916.747,VALID,0,VALID,96.4563,VALID,0.0169808,VALID,19.4895,VALID,16,VALID,0.327035,
2006-11-21, 07:51:00,VALID,916.754,VALID,0,VALID,97.0018,VALID,0,VALID,19.4517,VALID,16,VALID,0.245427,
2006-11-21, 07:52:00,VALID,916.756,VALID,0,VALID,97.6084,VALID,0.0169808,VALID,19.4574,VALID,16,VALID,0.241815,
2006-11-21, 07:53:00,VALID,916.738,VALID,0,VALID,97.8945,VALID,-0.0169808,VALID,19.4905,VALID,16,VALID,0.382612,
2006-11-21, 07:54:00,VALID,916.723,VALID,0,VALID,98.1501,VALID,0,VALID,19.4964,VALID,16,VALID,0.300595,
2006-11-21, 07:55:00,VALID,916.697,VALID,0,VALID,98.2938,VALID,0.0339617,VALID,19.516,VALID,16,VALID,0.385901,
2006-11-21, 07:56:00,VALID,916.677,VALID,0,VALID,98.4514,VALID,0,VALID,19.516,VALID,16,VALID,0.370384,
2006-11-21, 07:57:00,VALID,916.652,VALID,0,VALID,98.6969,VALID,0.0339617,VALID,19.5327,VALID,16,VALID,0.53457,
2006-11-21, 07:58:00,VALID,916.622,VALID,0,VALID,98.8075,VALID,0,VALID,19.5421,VALID,17,VALID,0.366257,
2006-11-21, 07:59:00,VALID,916.61,VALID,0,VALID,98.8418,VALID,0,VALID,19.5324,VALID,17,VALID,0.0807927,
2006-11-21, 08:00:00,VALID,916.609,VALID,0,VALID,98.8189,VALID,0,VALID,19.5195,VALID,17,VALID,0.041061,
2006-11-21, 08:01:00,VALID,916.609,VALID,0,VALID,98.7782,VALID,0,VALID,19.4999,VALID,17,VALID,0.529046,
2006-11-21, 08:02:00,VALID,916.609,VALID,0,VALID,99.1737,VALID,-0.0169808,VALID,19.5068,VALID,17,VALID,0.71147,
2006-11-21, 08:03:00,VALID,916.575,VALID,0,VALID,99.5031,VALID,0.0169808,VALID,19.5356,VALID,33,VALID,0.714571,
2006-11-21, 08:04:00,VALID,916.541,VALID,0,VALID,99.634,VALID,0,VALID,19.5905,VALID,48,VALID,0.651344,
2006-11-21, 08:05:00,VALID,916.513,VALID,0,VALID,99.5387,VALID,0,VALID,19.6489,VALID,49,VALID,0.471608,
2006-11-21, 08:06:00,VALID,916.498,VALID,0,VALID,99.2042,VALID,-0.0169808,VALID,19.6841,VALID,48,VALID,0.166853,
2006-11-21, 08:07:00,VALID,916.487,VALID,0,VALID,98.9563,VALID,-0.0169808,VALID,19.7196,VALID,48,VALID,0.193164,
2006-11-21, 08:08:00,VALID,916.496,VALID,0,VALID,98.8024,VALID,0,VALID,19.739,VALID,48,VALID,0.0247396,
2006-11-21, 08:09:00,VALID,916.486,VALID,0,VALID,98.7439,VALID,0,VALID,19.7385,VALID,48,VALID,0,
2006-11-21, 08:10:00,VALID,916.491,VALID,0,VALID,98.4998,VALID,0,VALID,19.7492,VALID,48,VALID,0,
2006-11-21, 08:11:00,VALID,916.474,VALID,0,VALID,98.3713,VALID,0,VALID,19.7519,VALID,48,VALID,0.157965,
2006-11-21, 08:12:00,VALID,916.465,VALID,0,VALID,98.3039,VALID,0,VALID,19.775,VALID,48,VALID,0.0144817,
2006-11-21, 08:13:00,VALID,916.464,VALID,0,VALID,98.2137,VALID,0,VALID,19.7549,VALID,48,VALID,0.0385045,
2006-11-21, 08:14:00,VALID,916.448,VALID,0,VALID,98.0738,VALID,-0.0169808,VALID,19.7459,VALID,48,VALID,0.10957,
2006-11-21, 08:15:00,VALID,916.451,VALID,0,VALID,97.972,VALID,-0.0169808,VALID,19.7035,VALID,48,VALID,0.0383185,
2006-11-21, 08:16:00,VALID,916.418,VALID,0,VALID,97.953,VALID,0,VALID,19.6647,VALID,48,VALID,0.0182884,
2006-11-21, 08:17:00,VALID,916.402,VALID,0,VALID,97.953,VALID,0,VALID,19.6359,VALID,48,VALID,0.140092,
2006-11-21, 08:18:00,VALID,916.405,VALID,0,VALID,97.7254,VALID,-0.0339617,VALID,19.5873,VALID,105,VALID,0.262074,
2006-11-21, 08:19:00,VALID,916.399,VALID,0,VALID,96.8657,VALID,0,VALID,19.4748,VALID,106,VALID,0.524164,
2006-11-21, 08:20:00,VALID,916.364,VALID,0,VALID,97.2294,VALID,-0.0169808,VALID,19.3581,VALID,106,VALID,0.550249,
2006-11-21, 08:21:00,VALID,916.338,VALID,0,VALID,98.0471,VALID,-0.0169808,VALID,19.3425,VALID,158,VALID,0.532552,
2006-11-21, 08:22:00,VALID,916.32,VALID,0,VALID,98.8151,VALID,-0.0169808,VALID,19.3812,VALID,214,VALID,0.558503,
2006-11-21, 08:23:00,VALID,916.326,VALID,0,VALID,99.133,VALID,0,VALID,19.4356,VALID,213,VALID,0.264509,
2006-11-21, 08:24:00,VALID,916.324,VALID,0,VALID,98.557,VALID,0,VALID,19.4192,VALID,211,VALID,0.0310683,
2006-11-21, 08:25:00,VALID,916.318,VALID,0,VALID,97.7635,VALID,0,VALID,19.3231,VALID,211,VALID,0.203125,
2006-11-21, 08:26:00,VALID,916.299,VALID,0,VALID,98.2874,VALID,0,VALID,19.2516,VALID,241,VALID,0.411882,
2006-11-21, 08:27:00,VALID,916.294,VALID,0,VALID,98.8647,VALID,-0.0169808,VALID,19.2643,VALID,242,VALID,0.446354,
2006-11-21, 08:28:00,VALID,916.29,VALID,0,VALID,99.175,VALID,0,VALID,19.3107,VALID,242,VALID,0.132086,
2006-11-21, 08:29:00,VALID,916.295,VALID,0,VALID,99.1241,VALID,-0.0169808,VALID,19.3293,VALID,242,VALID,0.0163194,
2006-11-21, 08:30:00,VALID,916.284,VALID,0,VALID,99.1572,VALID,0,VALID,19.3561,VALID,242,VALID,0,
2006-11-21, 08:31:00,VALID,916.293,VALID,0,VALID,99.2335,VALID,0,VALID,19.3653,VALID,242,VALID,0,
2006-11-21, 08:32:00,VALID,916.282,VALID,0,VALID,99.3517,VALID,-0.0339617,VALID,19.3847,VALID,242,VALID,0.15987,
2006-11-21, 08:33:00,VALID,916.283,VALID,0,VALID,99.5005,VALID,0,VALID,19.4105,VALID,224,VALID,0.481831,
2006-11-21, 08:34:00,VALID,916.28,VALID,0,VALID,99.395,VALID,0,VALID,19.4363,VALID,202,VALID,0.285547,
2006-11-21, 08:35:00,VALID,916.295,VALID,0,VALID,98.8278,VALID,-0.0169808,VALID,19.4142,VALID,202,VALID,0,
2006-11-21, 08:36:00,VALID,916.278,VALID,0,VALID,97.9619,VALID,-0.0339617,VALID,19.3042,VALID,202,VALID,0,
2006-11-21, 08:37:00,VALID,916.265,VALID,0,VALID,98.192,VALID,0,VALID,19.2424,VALID,202,VALID,0.0633681,
2006-11-21, 08:38:00,VALID,916.263,VALID,0,VALID,98.4286,VALID,0,VALID,19.2295,VALID,202,VALID,0.0712003,
2006-11-21, 08:39:00,VALID,916.248,VALID,0,VALID,98.7732,VALID,-0.0169808,VALID,19.23,VALID,202,VALID,0.0830305,
2006-11-21, 08:40:00,VALID,916.232,VALID,0,VALID,98.9652,VALID,-0.0169808,VALID,19.2228,VALID,202,VALID,0.0935497,
2006-11-21, 08:41:00,VALID,916.223,VALID,0,VALID,99.0262,VALID,-0.0169808,VALID,19.2069,VALID,225,VALID,0.398065,
2006-11-21, 08:42:00,VALID,916.226,VALID,0,VALID,99.1101,VALID,0.0169808,VALID,19.1654,VALID,286,VALID,0.65811,
2006-11-21, 08:43:00,VALID,916.224,VALID,0,VALID,99.6353,VALID,-0.0169808,VALID,19.1756,VALID,294,VALID,0.681836,
2006-11-21, 08:44:00,VALID,916.205,VALID,0,VALID,99.8693,VALID,-0.0169808,VALID,19.1749,VALID,297,VALID,0.74201,
2006-11-21, 08:45:00,VALID,916.211,VALID,0,VALID,99.8375,VALID,-0.0339617,VALID,19.1784,VALID,297,VALID,0.72218,
2006-11-21, 08:46:00,VALID,916.179,VALID,0,VALID,99.8782,VALID,-0.0339617,VALID,19.1654,VALID,297,VALID,0.627131,
2006-11-21, 08:47:00,VALID,916.164,VALID,0,VALID,99.8884,VALID,-0.0169808,VALID,19.1687,VALID,297,VALID,0.515816,
2006-11-21, 08:48:00,VALID,916.153,VALID,0,VALID,99.8032,VALID,0,VALID,19.1525,VALID,297,VALID,0.631373,
2006-11-21, 08:49:00,VALID,916.163,VALID,0,VALID,99.898,VALID,0,VALID,19.1617,VALID,296,VALID,0.616493,
2006-11-21, 08:50:00,VALID,916.165,VALID,0,VALID,99.6862,VALID,0,VALID,19.1364,VALID,290,VALID,0.776414,
2006-11-21, 08:51:00,VALID,916.16,VALID,0,VALID,99.9509,VALID,0.0169808,VALID,19.1299,VALID,288,VALID,0.657639,
2006-11-21, 08:52:00,VALID,916.155,VALID,0,VALID,100,VALID,-0.0679233,VALID,19.1851,VALID,288,VALID,0.202381,
2006-11-21, 08:53:00,VALID,916.159,VALID,0,VALID,100,VALID,-0.0509425,VALID,19.2436,VALID,288,VALID,0,
2006-11-21, 08:54:00,VALID,916.168,VALID,0,VALID,100,VALID,-0.0339617,VALID,19.2722,VALID,288,VALID,0.0486506,
2006-11-21, 08:55:00,VALID,916.166,VALID,0,VALID,100,VALID,-0.0509425,VALID,19.2983,VALID,288,VALID,0.37128,
2006-11-21, 08:56:00,VALID,916.158,VALID,0,VALID,100,VALID,-0.0509425,VALID,19.3534,VALID,288,VALID,0.521391,
2006-11-21, 08:57:00,VALID,916.152,VALID,0,VALID,100,VALID,-0.0339617,VALID,19.3785,VALID,288,VALID,0.440505,
2006-11-21, 08:58:00,VALID,916.148,VALID,0,VALID,99.97,VALID,-0.0679233,VALID,19.4082,VALID,288,VALID,0.484756,
2006-11-21, 08:59:00,VALID,916.151,VALID,0,VALID,99.9138,VALID,-0.0339617,VALID,19.4207,VALID,288,VALID,0.396913,
2006-11-21, 09:00:00,VALID,916.148,VALID,0,VALID,99.9952,VALID,-0.0169808,VALID,19.4495,VALID,288,VALID,0.304878,
2006-11-21, 09:01:00,VALID,916.161,VALID,0,VALID,99.9804,VALID,-0.0509425,VALID,19.4919,VALID,288,VALID,0,
2006-11-21, 09:02:00,VALID,916.164,VALID,0,VALID,99.84,VALID,-0.0509425,VALID,19.5016,VALID,288,VALID,0,
2006-11-21, 09:03:00,VALID,916.155,VALID,0,VALID,99.8616,VALID,-0.0169808,VALID,19.514,VALID,288,VALID,0.104759,
2006-11-21, 09:04:00,VALID,916.157,VALID,0,VALID,99.8795,VALID,-0.0339617,VALID,19.55,VALID,288,VALID,0.247024,
2006-11-21, 09:05:00,VALID,916.144,VALID,0,VALID,99.9809,VALID,-0.0339617,VALID,19.5855,VALID,288,VALID,0.241642,
2006-11-21, 09:06:00,VALID,916.146,VALID,0,VALID,99.8159,VALID,-0.0339617,VALID,19.6047,VALID,288,VALID,0.115057,
2006-11-21, 09:07:00,VALID,916.123,VALID,0,VALID,99.4522,VALID,-0.0849042,VALID,19.6079,VALID,288,VALID,0.00175781,
2006-11-21, 09:08:00,VALID,916.106,VALID,0,VALID,99.2729,VALID,-0.0849042,VALID,19.6012,VALID,288,VALID,0,
2006-11-21, 09:09:00,VALID,916.082,VALID,0,VALID,99.2119,VALID,-0.0339617,VALID,19.5982,VALID,288,VALID,0.155869,
2006-11-21, 09:10:00,VALID,916.068,VALID,0,VALID,98.8698,VALID,-0.0509425,VALID,19.5726,VALID,288,VALID,0.363372,
2006-11-21, 09:11:00,VALID,916.062,VALID,0,VALID,98.3217,VALID,-0.0509425,VALID,19.4852,VALID,288,VALID,0.43532,
2006-11-21, 09:12:00,VALID,916.073,VALID,0,VALID,99.0008,VALID,-0.0849042,VALID,19.4726,VALID,288,VALID,0.399219,
2006-11-21, 09:13:00,VALID,916.058,VALID,0,VALID,99.6887,VALID,-0.0679233,VALID,19.5304,VALID,288,VALID,0.33647,
2006-11-21, 09:14:00,VALID,916.04,VALID,0,VALID,99.7739,VALID,-0.0849042,VALID,19.6243,VALID,288,VALID,0.136161,
2006-11-21, 09:15:00,VALID,916.022,VALID,0,VALID,99.4713,VALID,-0.0679233,VALID,19.6628,VALID,288,VALID,0,
2006-11-21, 09:16:00,VALID,916.002,VALID,0,VALID,99.2971,VALID,-0.0169808,VALID,19.6945,VALID,288,VALID,0,
2006-11-21, 09:17:00,VALID,915.984,VALID,0,VALID,99.1712,VALID,-0.0169808,VALID,19.7206,VALID,288,VALID,0,
2006-11-21, 09:18:00,VALID,915.985,VALID,0,VALID,98.9029,VALID,-0.0339617,VALID,19.7437,VALID,288,VALID,0,
2006-11-21, 09:19:00,VALID,915.971,VALID,0,VALID,98.8469,VALID,-0.0509425,VALID,19.7335,VALID,288,VALID,0.0539773,
2006-11-21, 09:20:00,VALID,915.987,VALID,0,VALID,98.8164,VALID,0,VALID,19.7464,VALID,288,VALID,0.137251,
2006-11-21, 09:21:00,VALID,915.988,VALID,0,VALID,98.8075,VALID,-0.0169808,VALID,19.7661,VALID,288,VALID,0,
2006-11-21, 09:22:00,VALID,916.005,VALID,0,VALID,98.7554,VALID,-0.0339617,VALID,19.7623,VALID,288,VALID,0,
2006-11-21, 09:23:00,VALID,916.031,VALID,0,VALID,98.6574,VALID,0,VALID,19.7693,VALID,288,VALID,0.0144817,
2006-11-21, 09:24:00,VALID,916.033,VALID,0,VALID,98.59,VALID,-0.0339617,VALID,19.7499,VALID,288,VALID,0.285429,
2006-11-21, 09:25:00,VALID,916.029,VALID,0,VALID,98.6485,VALID,-0.0509425,VALID,19.7303,VALID,289,VALID,0.461458,
2006-11-21, 09:26:00,VALID,916.017,VALID,0,VALID,98.6117,VALID,-0.0509425,VALID,19.7179,VALID,315,VALID,0.466518,
2006-11-21, 09:27:00,VALID,916.007,VALID,0,VALID,98.5761,VALID,-0.0849042,VALID,19.7047,VALID,315,VALID,0.419457,
2006-11-21, 09:28:00,VALID,915.999,VALID,0,VALID,98.7528,VALID,-0.0509425,VALID,19.7079,VALID,315,VALID,0.331676,
2006-11-21, 09:29:00,VALID,915.99,VALID,0,VALID,98.9029,VALID,-0.0509425,VALID,19.7238,VALID,315,VALID,0.0717147,
2006-11-21, 09:30:00,VALID,915.976,VALID,0,VALID,98.8113,VALID,-0.0509425,VALID,19.7271,VALID,315,VALID,0,
2006-11-21, 09:31:00,VALID,915.969,VALID,0,VALID,98.3154,VALID,-0.0339617,VALID,19.7179,VALID,315,VALID,0.00454215,
2006-11-21, 09:32:00,VALID,915.973,VALID,0,VALID,98.1895,VALID,-0.0169808,VALID,19.6201,VALID,315,VALID,0.0672286,
2006-11-21, 09:33:00,VALID,915.975,VALID,0,VALID,98.6994,VALID,-0.0339617,VALID,19.6335,VALID,315,VALID,0,
2006-11-21, 09:34:00,VALID,915.986,VALID,0,VALID,98.9003,VALID,-0.0169808,VALID,19.6399,VALID,315,VALID,0.205983,
2006-11-21, 09:35:00,VALID,915.991,VALID,0,VALID,98.7833,VALID,-0.0339617,VALID,19.6367,VALID,318,VALID,0.506359,
2006-11-21, 09:36:00,VALID,915.982,VALID,0,VALID,98.4845,VALID,0,VALID,19.6109,VALID,320,VALID,0.404726,
2006-11-21, 09:37:00,VALID,915.975,VALID,0,VALID,98.3586,VALID,0,VALID,19.5528,VALID,342,VALID,0.407738,
2006-11-21, 09:38:00,VALID,915.953,VALID,0,VALID,98.5303,VALID,-0.0169808,VALID,19.4974,VALID,346,VALID,0.239329,
2006-11-21, 09:39:00,VALID,915.934,VALID,0,VALID,98.7604,VALID,0,VALID,19.4907,VALID,346,VALID,0.00872093,
2006-11-21, 09:40:00,VALID,915.939,VALID,0,VALID,99.1839,VALID,0,VALID,19.5076,VALID,346,VALID,0,
2006-11-21, 09:41:00,VALID,915.931,VALID,0,VALID,99.4929,VALID,0,VALID,19.5495,VALID,346,VALID,0,
2006-11-21, 09:42:00,VALID,915.929,VALID,0,VALID,99.531,VALID,0,VALID,19.5843,VALID,346,VALID,0,
2006-11-21, 09:43:00,VALID,915.928,VALID,0,VALID,99.5145,VALID,-0.0169808,VALID,19.6235,VALID,346,VALID,0.0951522,
2006-11-21, 09:44:00,VALID,915.944,VALID,0,VALID,99.5539,VALID,-0.0169808,VALID,19.6824,VALID,15,VALID,0.310404,
2006-11-21, 09:45:00,VALID,915.948,VALID,0,VALID,99.4318,VALID,-0.0509425,VALID,19.698,VALID,127,VALID,0.447493,
2006-11-21, 09:46:00,VALID,915.94,VALID,0,VALID,99.512,VALID,-0.0339617,VALID,19.7271,VALID,145,VALID,0.492378,
2006-11-21, 09:47:00,VALID,915.936,VALID,0,VALID,99.498,VALID,-0.0339617,VALID,19.7305,VALID,146,VALID,0.441907,
2006-11-21, 09:48:00,VALID,915.921,VALID,0,VALID,99.4827,VALID,-0.0169808,VALID,19.7303,VALID,149,VALID,0.426491,
2006-11-21, 09:49:00,VALID,915.894,VALID,0,VALID,99.5323,VALID,-0.0339617,VALID,19.7305,VALID,153,VALID,0.661337,
2006-11-21, 09:50:00,VALID,915.881,VALID,0,VALID,99.6175,VALID,-0.0169808,VALID,19.7166,VALID,161,VALID,0.506214,
2006-11-21, 09:51:00,VALID,915.878,VALID,0,VALID,99.7002,VALID,-0.0169808,VALID,19.7174,VALID,161,VALID,0.43045,
2006-11-21, 09:52:00,VALID,915.844,VALID,0,VALID,99.7675,VALID,0.0509425,VALID,19.7271,VALID,161,VALID,0.309048,
2006-11-21, 09:53:00,VALID,915.832,VALID,0,VALID,99.8057,VALID,0.0509425,VALID,19.7003,VALID,161,VALID,0.534624,
2006-11-21, 09:54:00,VALID,915.798,VALID,0,VALID,99.8451,VALID,0,VALID,19.6844,VALID,161,VALID,0.297656,
2006-11-21, 09:55:00,VALID,915.759,VALID,0,VALID,99.9062,VALID,0.0339617,VALID,19.6645,VALID,161,VALID,0.155107,
2006-11-21, 09:56:00,VALID,915.715,VALID,0,VALID,99.9189,VALID,0.0339617,VALID,19.6489,VALID,158,VALID,0.292969,
2006-11-21, 09:57:00,VALID,915.69,VALID,0,VALID,99.9644,VALID,0.0339617,VALID,19.6357,VALID,151,VALID,0.578711,
2006-11-21, 09:58:00,VALID,915.698,VALID,0,VALID,99.9883,VALID,0.0679233,VALID,19.6235,VALID,151,VALID,0.374273,
2006-11-21, 09:59:00,VALID,915.721,VALID,0,VALID,100,VALID,0.0339617,VALID,19.6136,VALID,151,VALID,0.239211,
2006-11-21, 10:00:00,VALID,915.731,VALID,0,VALID,100,VALID,0.0679233,VALID,19.5972,VALID,151,VALID,0.233631,
2006-11-21, 10:01:00,VALID,915.747,VALID,0,VALID,99.9914,VALID,0.0339617,VALID,19.5811,VALID,151,VALID,0.207403,
2006-11-21, 10:02:00,VALID,915.733,VALID,0,VALID,99.8706,VALID,0.0169808,VALID,19.5555,VALID,108,VALID,0.515443,
2006-11-21, 10:03:00,VALID,915.739,VALID,0,VALID,99.9405,VALID,0,VALID,19.5195,VALID,118,VALID,0.408736,
2006-11-21, 10:04:00,VALID,915.74,VALID,0,VALID,99.9919,VALID,0.0169808,VALID,19.5101,VALID,108,VALID,0.242369,
2006-11-21, 10:05:00,VALID,915.757,VALID,0,VALID,99.9514,VALID,0.0169808,VALID,19.4877,VALID,97,VALID,0.340511,
2006-11-21, 10:06:00,VALID,915.775,VALID,0,VALID,99.8451,VALID,0,VALID,19.4592,VALID,66,VALID,0.731445,
2006-11-21, 10:07:00,VALID,915.788,VALID,0,VALID,99.8324,VALID,0,VALID,19.4142,VALID,68,VALID,0.997523,
2006-11-21, 10:08:00,VALID,915.789,VALID,0,VALID,99.9603,VALID,0,VALID,19.3487,VALID,74,VALID,1.08384,
2006-11-21, 10:09:00,VALID,915.784,VALID,0,VALID,100,VALID,0,VALID,19.31,VALID,73,VALID,0.941964,
2006-11-21, 10:10:00,VALID,915.781,VALID,0,VALID,100,VALID,0.0169808,VALID,19.301,VALID,71,VALID,1.21602,
2006-11-21, 10:11:00,VALID,915.774,VALID,0,VALID,100,VALID,0.0169808,VALID,19.2355,VALID,69,VALID,0.756098,
2006-11-21, 10:12:00,VALID,915.752,VALID,0,VALID,100,VALID,0.0169808,VALID,19.2101,VALID,69,VALID,0.555432,
2006-11-21, 10:13:00,VALID,915.754,VALID,0,VALID,100,VALID,-0.0169808,VALID,19.1744,VALID,69,VALID,0.272166,
2006-11-21, 10:14:00,VALID,915.741,VALID,0,VALID,100,VALID,0.0339617,VALID,19.1558,VALID,69,VALID,0,
2006-11-21, 10:15:00,VALID,915.745,VALID,0,VALID,100,VALID,0,VALID,19.1299,VALID,69,VALID,0,
2006-11-21, 10:16:00,VALID,915.747,VALID,0,VALID,100,VALID,0,VALID,19.0905,VALID,69,VALID,0,
2006-11-21, 10:17:00,VALID,915.737,VALID,0,VALID,100,VALID,0,VALID,19.1235,VALID,69,VALID,0.110491,
2006-11-21, 10:18:00,VALID,915.727,VALID,0,VALID,100,VALID,0.0169808,VALID,19.1133,VALID,69,VALID,0,
2006-11-21, 10:19:00,VALID,915.736,VALID,0,VALID,100,VALID,0,VALID,19.1366,VALID,69,VALID,0.00111607,
2006-11-21, 10:20:00,VALID,915.727,VALID,0,VALID,100,VALID,0.0169808,VALID,19.1424,VALID,69,VALID,0,
2006-11-21, 10:21:00,VALID,915.718,VALID,0,VALID,100,VALID,0.0169808,VALID,19.1299,VALID,69,VALID,0,
2006-11-21, 10:22:00,VALID,915.712,VALID,0,VALID,100,VALID,0.0169808,VALID,19.1074,VALID,69,VALID,0,
2006-11-21, 10:23:00,VALID,915.701,VALID,0,VALID,100,VALID,0.0169808,VALID,19.0746,VALID,69,VALID,0,
2006-11-21, 10:24:00,VALID,915.711,VALID,0,VALID,100,VALID,0.0169808,VALID,19.0592,VALID,69,VALID,0.0111607,
2006-11-21, 10:25:00,VALID,915.718,VALID,0,VALID,100,VALID,0.0169808,VALID,19.0202,VALID,69,VALID,0.372638,
2006-11-21, 10:26:00,VALID,915.726,VALID,0,VALID,100,VALID,0.0339617,VALID,19.0299,VALID,37,VALID,0.621094,
2006-11-21, 10:27:00,VALID,915.731,VALID,0,VALID,100,VALID,0.0169808,VALID,19.0202,VALID,7,VALID,0.896662,
2006-11-21, 10:28:00,VALID,915.748,VALID,0,VALID,100,VALID,0.0169808,VALID,18.9879,VALID,1,VALID,0.874023,
2006-11-21, 10:29:00,VALID,915.74,VALID,0,VALID,100,VALID,0,VALID,18.9683,VALID,360,VALID,0.882267,
2006-11-21, 10:30:00,VALID,915.747,VALID,0,VALID,100,VALID,0.0169808,VALID,18.9946,VALID,1,VALID,0.699574,
2006-11-21, 10:31:00,VALID,915.743,VALID,0,VALID,100,VALID,0,VALID,18.9907,VALID,1,VALID,0.704985,
2006-11-21, 10:32:00,VALID,915.75,VALID,0,VALID,100,VALID,0.0169808,VALID,19.0071,VALID,1,VALID,0.709666,
2006-11-21, 10:33:00,VALID,915.757,VALID,0,VALID,100,VALID,0.0169808,VALID,19.014,VALID,1,VALID,0.558408,
2006-11-21, 10:34:00,VALID,915.758,VALID,0,VALID,100,VALID,0,VALID,18.9882,VALID,1,VALID,0.562012,
2006-11-21, 10:35:00,VALID,915.754,VALID,0,VALID,100,VALID,0,VALID,18.9624,VALID,10,VALID,0.578506,
2006-11-21, 10:36:00,VALID,915.744,VALID,0,VALID,100,VALID,-0.0169808,VALID,18.9492,VALID,14,VALID,0.368555,
2006-11-21, 10:37:00,VALID,915.713,VALID,0,VALID,100,VALID,-0.0339617,VALID,18.943,VALID,14,VALID,0.332031,